utc_time,unix_time,temp,cond,salinity,tds,chla_rfu,chla_ugl,bga_rfu,bga_ugl,odo,sat,nitrate_um,nitrogen_mg,stage,area,discharge,total_discharge
2020-11-19 18:08:00+00:00,1605809280,15.7,,,,,,,,,,,,0.83,1.7112,-0.4,
2020-11-19 21:48:00+00:00,1605822480,16.14,,,,,,,,,,34.425,0.4822,0.838,1.864,-4.2,
2020-11-19 22:08:00+00:00,1605823680,16.1,,,,,,,,,,31.81,0.44555,0.838,1.8779,0.2,
2020-11-19 22:28:00+00:00,1605824880,16.05,,,,,,,,,,31.124,0.43597,0.84,1.8918,1.8,
2020-11-19 22:48:00+00:00,1605826080,15.99,,,,,,,,,,32.954,0.46158,0.84,1.9057,10.6,
2020-11-19 23:08:00+00:00,1605827280,15.93,,,,,,,,,,30.137,0.42212,0.842,1.9196,-3.5,
2020-11-19 23:28:00+00:00,1605828480,15.89,,,,,,,,,,28.556,0.39997,0.842,1.9335,4.8,
2020-11-19 23:48:00+00:00,1605829680,16.75,,,,,,,,,,31.446,0.44046,0.846,1.9473,0,
2020-11-20 00:08:00+00:00,1605830880,17.49,,,,,,,,,,29.294,0.41031,0.853,1.9612,2.3,
2020-11-20 00:28:00+00:00,1605832080,17.64,,,,,,,,,,29.107,0.4077,0.854,1.9751,0,
2020-11-20 00:48:00+00:00,1605833280,17.66,,,,,,,,,,36.212,0.50722,0.855,1.989,-1.6,
2020-11-20 01:08:00+00:00,1605834480,17.54,,,,,,,,,,36.383,0.50964,0.856,2.0029,-5.4,
2020-11-20 01:28:00+00:00,1605835680,17.44,,,,,,,,,,36.067,0.50517,0.855,2.0168,-0.8,
2020-11-20 01:48:00+00:00,1605836880,17.32,,,,,,,,,,33.185,0.4648,0.856,2.0307,4.4,
2020-11-20 02:08:00+00:00,1605838080,17.22,,,,,,,,,,25.472,0.3568,0.854,2.0446,-2.1,
2020-11-20 02:28:00+00:00,1605839280,15.83,,,,,,,,,,23.256,0.32574,0.83,2.0585,-29.1,
2020-11-20 02:48:00+00:00,1605840480,16.23,,,,,,,,,,20.298,0.28429,0.819,2.0723,-34.2,
2020-11-20 03:08:00+00:00,1605841680,16.38,,,,,,,,,,20.321,0.28462,0.811,2.0862,-35.3,
2020-11-20 03:28:00+00:00,1605842880,16.35,,,,,,,,,,19.574,0.27414,0.804,2.1001,-42.5,
2020-11-20 03:48:00+00:00,1605844080,16.35,,,,,,,,,,17.356,0.24312,0.797,2.114,-37.6,
2020-11-20 04:08:00+00:00,1605845280,16.31,,,,,,,,,,15.821,0.2216,0.792,2.1279,-32.2,
2020-11-20 04:28:00+00:00,1605846480,16.11,,,,,,,,,,15.495,0.21703,0.783,2.1418,-33.2,
2020-11-20 04:48:00+00:00,1605847680,15.84,,,,,,,,,,14.544,0.20372,0.778,2.1557,-27.8,
2020-11-20 05:08:00+00:00,1605848880,15.7,,,,,,,,,,11.415,0.15987,0.771,2.1696,-30.6,
2020-11-20 05:28:00+00:00,1605850080,15.55,,,,,,,,,,9.505,0.13312,0.767,2.1835,-26.1,
2020-11-20 05:48:00+00:00,1605851280,15.39,,,,,,,,,,8.049,0.11274,0.758,2.1973,-23.8,
2020-11-20 06:08:00+00:00,1605852480,15.27,,,,,,,,,,7.184,0.10062,0.754,2.2112,-32.8,
2020-11-20 06:28:00+00:00,1605853680,15.12,,,,,,,,,,8.037,0.11256,0.761,2.2251,-17.9,
2020-11-20 06:48:00+00:00,1605854880,15.06,,,,,,,,,,11.85,0.16599,0.772,2.239,9.7,
2020-11-20 07:08:00+00:00,1605856080,15,,,,,,,,,,12.15,0.17019,0.77,2.2529,1,
2020-11-20 07:28:00+00:00,1605857280,14.99,,,,,,,,,,12.747,0.17854,0.776,2.2668,-2.8,
2020-11-20 07:48:00+00:00,1605858480,14.9,,,,,,,,,,15.456,0.21648,0.779,2.2807,6.4,
2020-11-20 08:08:00+00:00,1605859680,14.9,,,,,,,,,,12.995,0.18201,0.779,2.2946,0,
2020-11-20 08:28:00+00:00,1605860880,14.71,,,,,,,,,,11.106,0.15556,0.778,2.3085,1.5,
2020-11-20 08:48:00+00:00,1605862080,14.57,,,,,,,,,,10.758,0.1507,0.78,2.3223,-3.7,
2020-11-20 09:08:00+00:00,1605863280,14.51,,,,,,,,,,10.71,0.15003,0.782,2.3362,3,
2020-11-20 09:28:00+00:00,1605864480,14.36,,,,,,,,,,10.971,0.15367,0.781,2.3501,3.9,
2020-11-20 09:48:00+00:00,1605865680,14.24,,,,,,,,,,9.669,0.1354,0.782,2.364,18.8,
2020-11-20 10:08:00+00:00,1605866880,14.2,,,,,,,,,,8.56,0.11989,0.788,2.3779,6.4,
2020-11-20 10:28:00+00:00,1605868080,14.01,,,,,,,,,,18.442,0.25831,0.785,2.3918,1.1,
2020-11-20 10:48:00+00:00,1605869280,13.97,,,,,,,,,,61.272,0.85823,0.788,2.4057,2.5,
2020-11-20 11:08:00+00:00,1605870480,13.98,,,,,,,,,,87.195,1.22132,0.789,2.4196,6.8,
2020-11-20 11:28:00+00:00,1605871680,14.02,,,,,,,,,,86.877,1.21687,-1,2.4335,3.3,
2020-11-20 11:48:00+00:00,1605872880,14.05,,,,,,,,,,85.422,1.19648,0.8,2.4473,5.7,
2020-11-20 12:08:00+00:00,1605874080,14.11,,,,,,,,,,83.098,1.1639,0.799,2.4612,7.3,
2020-11-20 12:28:00+00:00,1605875280,14.17,,,,,,,,,,80.632,1.12938,0.802,2.4751,0.4,
2020-11-20 12:48:00+00:00,1605876480,14.23,,,,,,,,,,78.406,1.09821,0.803,2.489,14.9,
2020-11-20 13:08:00+00:00,1605877680,14.27,,,,,,,,,,75.314,1.05489,0.804,2.5029,9,
2020-11-20 13:28:00+00:00,1605878880,14.29,,,,,,,,,,75.581,1.05868,0.806,2.5168,2.1,
2020-11-20 13:48:00+00:00,1605880080,14.29,,,,,,,,,,70.351,0.98539,0.804,2.5307,7.6,
2020-11-20 14:08:00+00:00,1605881280,14.27,,,,,,,,,,69.505,0.97355,0.802,2.5446,3.1,
2020-11-20 14:28:00+00:00,1605882480,14.23,,,,,,,,,,67.048,0.93912,0.802,2.5585,8.3,
2020-11-20 14:48:00+00:00,1605883680,14.17,,,,,,,,,,68.549,0.96015,0.802,2.5723,5.2,
2020-11-20 15:08:00+00:00,1605884880,14.13,,,,,,,,,,67.371,0.94368,0.806,2.5862,1.6,
2020-11-20 15:28:00+00:00,1605886080,14.16,,,,,,,,,,61.145,0.85644,0.806,2.6001,0,
2020-11-20 15:48:00+00:00,1605887280,14.21,,,,,,,,,,61.636,0.8633,0.813,2.614,7,
2020-11-20 16:08:00+00:00,1605888480,14.25,,,,,,,,,,62.063,0.86929,0.815,2.6279,-3.8,
2020-11-20 16:28:00+00:00,1605889680,14.04,,,,,,,,,,57.721,0.80846,0.816,2.6418,1.1,
2020-11-20 16:48:00+00:00,1605890880,14.1,,,,,,,,,,60.551,0.84812,0.815,2.6557,-1.6,
2020-11-20 17:08:00+00:00,1605892080,14.16,,,,,,,,,,57.71,0.80835,0.82,2.6696,15.2,
2020-11-20 17:28:00+00:00,1605893280,14,,,,,,,,,,57.36,0.80341,0.821,2.6835,-1.9,
2020-11-20 17:48:00+00:00,1605894480,13.75,,,,,,,,,,54.125,0.7581,0.822,2.6973,3.5,
2020-11-20 18:08:00+00:00,1605895680,14.01,,,,,,,,,,54.174,0.7588,0.825,2.7112,-0.6,
2020-11-20 18:28:00+00:00,1605896880,14.01,,,,,,,,,,53.382,0.7477,0.827,2.7251,5.9,
2020-11-20 18:48:00+00:00,1605898080,14.03,,,,,,,,,,55.402,0.77598,0.833,2.739,6.3,
2020-11-20 19:08:00+00:00,1605899280,14.25,,,,,,,,,,55.187,0.77299,0.832,2.7529,4.5,
2020-11-20 19:28:00+00:00,1605900480,14.11,,,,,,,,,,52.814,0.73973,-1,2.7668,4.6,
2020-11-20 19:48:00+00:00,1605901680,14.17,,,,,,,,,,50.44,0.70647,0.832,2.7807,5.3,
2020-11-20 20:08:00+00:00,1605902880,14.35,,,,,,,,,,54.261,0.76,-1,2.7946,10.1,
2020-11-20 20:28:00+00:00,1605904080,14.56,,,,,,,,,,53.083,0.74348,0.827,2.8085,0,
2020-11-20 20:48:00+00:00,1605905280,14.68,,,,,,,,,,55.408,0.77607,0.828,2.8223,-3.3,
2020-11-20 21:08:00+00:00,1605906480,14.75,,,,,,,,,,55.797,0.78157,0.832,2.8362,2.7,
2020-11-20 21:28:00+00:00,1605907680,14.81,,,,,,,,,,55.867,0.78251,0.831,2.8501,11,
2020-11-20 21:48:00+00:00,1605908880,14.91,,,,,,,,,,49.967,0.69985,0.833,2.864,9.5,
2020-11-20 22:08:00+00:00,1605910080,14.9,,,,,,,,,,49.214,0.68932,0.833,2.8779,9.8,
2020-11-20 22:28:00+00:00,1605911280,14.89,,,,,,,,,,44.971,0.62994,0.832,2.8918,10.3,
